Weather History for Worland, WY

Change the Weather History Date:

Friday, September 6, 2013

  Actual Average Record
Temperature  
Mean Temperature 76 °F 63 °F  
Max Temperature 93 °F 80 °F 100 °F (1978)
Min Temperature 59 °F 47 °F 39 °F (1969)
Degree Days  
Heating Degree Days 0 4  
Month to date heating degree days 0 18  
Since 1 July heating degree days 0 54  
Cooling Degree Days 11 2  
Month to date cooling degree days 63 14  
Year to date cooling degree days 824 520  
Growing Degree Days 26 (Base 50)    
Moisture  
Dew Point 50 °F    
Average Humidity 45    
Maximum Humidity 65    
Minimum Humidity 24    
Precipitation  
Precipitation 0.00 in 0.02 in 0.42 in (2001)
Month to date precipitation 0.03 0.13  
Year to date precipitation 3.24 5.58  
Sea Level Pressure  
Sea Level Pressure 29.94 in    
Wind  
Wind Speed 6 mph (NNW)    
Max Wind Speed 30 mph    
Max Gust Speed 35 mph    
Visibility 10 miles    
Events Thunderstorm    
T = Trace of Precipitation, MM = Missing Value Source: NWS Daily Summary

Daily Weather History Graph

Daily Weather History Graph

Search for Another Location

Airport:

Trip Planner

Search our weather history database for the weather conditions in past years. The results will help you decide how hot, cold, wet, or windy it might be!

Date:

Astronomy

Sep. 06, 2013 Rise Set
Actual Time 6:41 AM MDT 7:38 PM MDT
Civil Twilight 6:11 AM MDT 8:07 PM MDT
Nautical Twilight 5:36 AM MDT 8:42 PM MDT
Astronomical Twilight 4:59 AM MDT 9:18 PM MDT
Moon 8:01 AM MDT (9/6) 7:58 PM MDT (9/6)
Length of Visible Light 13h 55m
Length of Day
12h 56m
New Moon, 2% of the Moon is Illuminated
Sep 6
New Moon
Sep 12
First Quarter
Sep 19
Full
Sep 26
Last Quarter
Oct 4
New

Hourly Weather History & Observations

Time (MDT) Temp. Heat Index Dew Point Humidity Pressure Visibility Wind Dir Wind Speed Gust Speed Precip Events Conditions
12:53 AM 75.0 °F - 54.0 °F 48% 29.88 in 10.0 mi ENE 8.1 mph - N/A   Clear
1:53 AM 69.1 °F - 53.1 °F 57% 29.91 in 10.0 mi Calm Calm - N/A   Clear
2:53 AM 69.1 °F - 51.1 °F 53% 29.91 in 10.0 mi South 8.1 mph - N/A   Clear
3:53 AM 66.0 °F - 50.0 °F 56% 29.92 in 10.0 mi SSW 5.8 mph - N/A   Partly Cloudy
4:53 AM 64.9 °F - 48.0 °F 54% 29.94 in 10.0 mi Calm Calm - N/A   Partly Cloudy
5:53 AM 62.1 °F - 50.0 °F 65% 29.96 in 10.0 mi Calm Calm - N/A   Clear
6:53 AM 60.1 °F - 48.9 °F 67% 29.98 in 10.0 mi SSE 3.5 mph - N/A   Clear
7:53 AM 64.9 °F - 51.1 °F 61% 30.01 in 10.0 mi Calm Calm - N/A   Partly Cloudy
8:53 AM 73.0 °F - 50.0 °F 44% 30.00 in 9.0 mi WSW 4.6 mph - N/A   Clear
9:53 AM 77.0 °F - 51.1 °F 40% 29.99 in 10.0 mi NW 5.8 mph - N/A   Clear
10:53 AM 81.0 °F - 51.1 °F 35% 29.99 in 10.0 mi Variable 3.5 mph - N/A   Clear
11:53 AM 84.0 °F - 51.1 °F 32% 29.97 in 10.0 mi North 3.5 mph - N/A   Clear
12:53 PM 89.1 °F - 51.1 °F 27% 29.93 in 10.0 mi NNW 5.8 mph - N/A   Clear
1:53 PM 89.1 °F - 50.0 °F 26% 29.94 in 10.0 mi West 16.1 mph - N/A   Clear
2:53 PM 86.0 °F - 48.0 °F 27% 29.92 in 10.0 mi WNW 6.9 mph - N/A   Clear
3:13 PM 87.8 °F - 48.2 °F 25% 30.06 in 10.0 mi West 5.8 mph - N/A Thunderstorm Clear
3:49 PM 91.4 °F - 48.2 °F 23% 30.04 in 10.0 mi ENE 8.1 mph - N/A   Mostly Cloudy
3:53 PM 89.1 °F - 48.9 °F 25% 29.89 in 10.0 mi NE 6.9 mph - N/A   Mostly Cloudy
4:53 PM 89.1 °F - 51.1 °F 27% 29.87 in 10.0 mi NNW 3.5 mph - N/A   Clear
5:53 PM 91.0 °F 88.5 °F 53.1 °F 27% 29.85 in 10.0 mi NNE 5.8 mph - N/A   Clear
6:53 PM 87.1 °F - 50.0 °F 28% 29.85 in 10.0 mi NE 5.8 mph - N/A   Clear
7:53 PM 78.1 °F - 46.0 °F 32% 29.86 in 10.0 mi East 8.1 mph - N/A   Clear
8:53 PM 77.0 °F - 53.1 °F 43% 29.89 in 10.0 mi NW 8.1 mph - N/A   Clear
9:53 PM 77.0 °F - 48.9 °F 37% 29.90 in 10.0 mi NW 12.7 mph 23.0 mph N/A   Mostly Cloudy
10:53 PM 71.1 °F - 53.1 °F 53% 29.94 in 10.0 mi NNE 9.2 mph - N/A   Clear
11:53 PM 72.0 °F - 51.1 °F 48% 29.95 in 10.0 mi NNW 8.1 mph - N/A   Scattered Clouds